sat.trackr.live / text

‹ back to catalog

ZHIXING-2A

NORAD 58922 · 2024-024F

PAYLOAD ACTIVE UNKNOWN

§ Identity

Operator
Country
PRC
Launch date
2024-02-03
Launch site
SCSLA
Launch vehicle
Mass (kg)
RCS (m²)

External: N2YO · Heavens-Above · Gunter

§ Orbital elements

Epoch: 2026-09-22T23:21:55.368864Z

Period
94.52 min
Inclination
97.2940°
Eccentricity
0.0013022
Mean motion
15.23529206 rev/d
Perigee alt
486.3 km
Apogee alt
504.2 km
Semi-major
6,873.3 km
B*
2.5451e-4
RAAN
327.7971°
Arg perigee
62.2864°
Mean anomaly
297.9693°
Rev number
14,614

§ Raw data

ZHIXING-2A1 58922U 24024F   26265.97355751  .00006024  00000+0  25451-3 0  99922 58922  97.2940 327.7971 0013022  62.2864 297.9693 15.23529206146147

JSON: /api/v1/satellites/58922 · /tle

For live sub-satellite position, see the globe view (requires WebGL).

§ Visibility from observer

Set your observer location to see the next 7 days of passes ≥ 10°. The values pass through the URL so the page stays shareable.

No JS? Fill the form by hand. The geolocation button needs JavaScript.